Clermont County, Batavia, OH

11:36 PM EST on December 14, 2019 (GMT -0500)
Clermont County, Batavia

Weather History for KI69 - July, 2019

Change the Weather History Date:

Wednesday, July 17, 2019

  Actual Average (KLUK) Record (KLUK)
Temperature  
Mean Temperature 79 °F -  
Max Temperature 86 °F 87 °F 97 °F (2012)
Min Temperature 72 °F 65 °F 52 °F (2014)
Cooling Degree Days 14    
Growing Degree Days 29 (Base 50)    
Moisture  
Dew Point 73 °F    
Average Humidity 89    
Maximum Humidity 98    
Minimum Humidity 68    
Precipitation  
Precipitation 0.60 in - - ()
Sea Level Pressure  
Sea Level Pressure 29.96 in    
Wind  
Wind Speed 6 mph (SW)    
Max Wind Speed 18 mph    
Max Gust Speed 26 mph    
Visibility 9 miles    
Events Rain    
Averages and records for this station are not official NWS values.
T = Trace of Precipitation, MM = Missing Value Source: NWS Daily Summary

Daily Weather History Graph

Daily Weather History Graph

Search for Another Location

Airport or City:

Astronomy

Jul. 17, 2019 Rise Set
Actual Time 6:24 AM EDT 9:00 PM EDT
Civil Twilight 5:53 AM EDT 9:31 PM EDT
Nautical Twilight 5:14 AM EDT 10:10 PM EDT
Astronomical Twilight 4:31 AM EDT 10:53 PM EDT
Moon 9:49 PM EDT (7/17) 6:56 AM EDT (7/17)
Length of Visible Light 15h 38m
Length of Day
14h 36m
Waxing Gibbous, 99% of the Moon is Illuminated
Jul 17
Waxing Gibbous
Jul 24
Last Quarter
Jul 31
New
Aug 7
First Quarter
Aug 15
Full

Hourly Weather History & Observations

Time (EDT) Temp. Heat Index Dew Point Humidity Pressure Visibility Wind Dir Wind Speed Gust Speed Precip Events Conditions
12:16 AM 75.4 °F - 72.5 °F 91% 29.99 in 10.0 mi Calm Calm - 0.01 in Rain Light Rain
12:35 AM 75.6 °F - 72.1 °F 89% 29.99 in 10.0 mi South 4.6 mph - 0.01 in   Mostly Cloudy
12:56 AM 75.2 °F - 71.6 °F 89% 29.99 in 10.0 mi SSW 8.1 mph - 0.01 in   Mostly Cloudy
1:15 AM 75.2 °F - 71.1 °F 87% 29.98 in 10.0 mi SSW 8.1 mph - N/A   Scattered Clouds
1:38 AM 75.2 °F - 71.4 °F 88% 29.99 in 10.0 mi SSW 5.8 mph - N/A   Scattered Clouds
1:56 AM 75.2 °F - 71.4 °F 88% 29.98 in 10.0 mi SSW 5.8 mph - N/A   Scattered Clouds
2:15 AM 74.7 °F - 71.1 °F 88% 29.98 in 10.0 mi SSW 5.8 mph - N/A   Scattered Clouds
2:35 AM 74.7 °F - 70.7 °F 87% 29.98 in 10.0 mi SW 9.2 mph - N/A   Mostly Cloudy
2:55 AM 74.3 °F - 70.7 °F 88% 29.97 in 10.0 mi SSW 6.9 mph - N/A   Mostly Cloudy
3:18 AM 74.3 °F - 70.7 °F 88% 29.96 in 10.0 mi SSW 6.9 mph - N/A   Mostly Cloudy
3:36 AM 73.8 °F - 70.3 °F 89% 29.96 in 10.0 mi SW 9.2 mph - N/A   Overcast
3:55 AM 73.2 °F - 70.7 °F 92% 29.95 in 7.0 mi SSW 6.9 mph - N/A Rain Light Rain
4:15 AM 73.0 °F - 70.9 °F 93% 29.94 in 10.0 mi SSW 3.5 mph - N/A   Overcast
4:35 AM 72.9 °F - 70.9 °F 93% 29.94 in 10.0 mi SSW 3.5 mph - N/A   Overcast
4:40 AM 72.9 °F - 70.7 °F 93% 29.94 in 10.0 mi SSW 4.6 mph - N/A   Overcast
4:58 AM 73.2 °F - 70.7 °F 92% 29.94 in 10.0 mi SSW 5.8 mph - N/A   Overcast
5:16 AM 73.6 °F - 70.9 °F 91% 29.95 in 10.0 mi SSW 5.8 mph - N/A Rain Light Rain
5:35 AM 73.0 °F - 71.1 °F 93% 29.94 in 10.0 mi SSW 6.9 mph - 0.01 in Rain Light Rain
5:55 AM 73.0 °F - 71.2 °F 94% 29.94 in 10.0 mi South 5.8 mph - 0.01 in   Overcast
6:19 AM 73.0 °F - 71.4 °F 95% 29.95 in 10.0 mi SSW 5.8 mph - N/A Rain Light Rain
6:38 AM 72.7 °F - 71.2 °F 95% 29.94 in 7.0 mi SSW 4.6 mph - 0.02 in Rain Rain
6:56 AM 72.5 °F - 71.4 °F 96% 29.94 in 7.0 mi SSW 5.8 mph - 0.03 in Rain Light Rain
7:15 AM 72.7 °F - 71.6 °F 96% 29.94 in 7.0 mi SSW 8.1 mph - 0.02 in Rain Light Rain
7:35 AM 72.9 °F - 71.6 °F 96% 29.94 in 10.0 mi SSW 5.8 mph - 0.02 in Rain Light Rain
7:59 AM 72.7 °F - 72.0 °F 98% 29.94 in 2.5 mi SW 8.1 mph - 0.04 in   Heavy Drizzle
8:17 AM 73.0 °F - 72.0 °F 96% 29.96 in 10.0 mi SW 8.1 mph - N/A   Overcast
8:36 AM 73.4 °F - 72.1 °F 96% 29.96 in 10.0 mi SW 8.1 mph - N/A   Overcast
8:55 AM 73.4 °F - 72.5 °F 97% 29.96 in 1.8 mi SSW 6.9 mph - 0.03 in Rain Rain
9:15 AM 73.4 °F - 72.5 °F 97% 29.96 in 3.0 mi SSW 8.1 mph - 0.02 in Rain Rain
9:39 AM 73.9 °F - 72.9 °F 96% 29.96 in 4.0 mi SW 11.5 mph 17.3 mph 0.03 in Rain Rain
9:57 AM 74.3 °F - 73.4 °F 97% 29.97 in 7.0 mi WSW 9.2 mph - 0.03 in   Overcast
10:15 AM 74.3 °F - 73.4 °F 97% 29.97 in 10.0 mi SW 8.1 mph - 0.01 in Rain Light Rain
10:35 AM 75.2 °F - 73.9 °F 96% 29.97 in 10.0 mi SW 9.2 mph - 0.01 in   Overcast
10:36 AM 75.4 °F - 74.1 °F 96% 29.97 in 10.0 mi SW 10.4 mph - 0.01 in   Overcast
10:55 AM 75.7 °F - 73.9 °F 94% 29.97 in 10.0 mi WSW 10.4 mph - 0.01 in   Overcast
11:19 AM 77.2 °F - 75.0 °F 93% 29.98 in 10.0 mi WSW 10.4 mph 16.1 mph N/A   Overcast
11:37 AM 76.8 °F - 74.1 °F 91% 29.98 in 10.0 mi SW 9.2 mph - N/A   Overcast
11:55 AM 78.4 °F - 75.2 °F 90% 29.98 in 10.0 mi WSW 10.4 mph - N/A   Overcast
12:16 PM 79.0 °F - 75.0 °F 88% 29.98 in 10.0 mi WSW 9.2 mph - N/A   Overcast
12:35 PM 78.8 °F - 73.9 °F 85% 29.98 in 10.0 mi WSW 16.1 mph - N/A   Overcast
12:59 PM 73.4 °F - 72.0 °F 95% 29.99 in 2.0 mi WNW 6.9 mph - 0.14 in Rain Heavy Rain
1:17 PM 73.4 °F - 72.5 °F 97% 29.99 in 3.0 mi WSW 5.8 mph - 0.25 in Rain Light Rain
1:35 PM 73.8 °F - 72.7 °F 96% 29.99 in 10.0 mi West 6.9 mph - 0.29 in Rain Light Rain
1:55 PM 76.6 °F - 75.0 °F 95% 29.99 in 10.0 mi WSW 8.1 mph - 0.30 in Rain Light Rain
2:15 PM 76.1 °F - 73.6 °F 92% 29.98 in 10.0 mi WSW 9.2 mph - N/A Rain Light Rain
2:16 PM 76.1 °F - 73.6 °F 92% 29.97 in 10.0 mi WSW 9.2 mph - N/A Rain Light Rain
2:39 PM 76.1 °F - 73.2 °F 91% 29.97 in 10.0 mi WSW 10.4 mph - N/A   Clear
2:57 PM 76.6 °F - 73.8 °F 91% 29.97 in 10.0 mi WSW 10.4 mph - N/A   Clear
3:15 PM 78.6 °F - 74.7 °F 88% 29.96 in 10.0 mi WSW 10.4 mph - N/A   Clear
3:35 PM 81.1 °F 86.8 °F 74.5 °F 80% 29.95 in 10.0 mi WSW 12.7 mph - N/A   Clear
3:55 PM 82.8 °F 89.2 °F 74.1 °F 75% 29.94 in 10.0 mi West 12.7 mph 16.1 mph N/A   Clear
4:19 PM 83.8 °F 91.8 °F 75.2 °F 75% 29.93 in 10.0 mi WSW 11.5 mph - N/A   Clear
4:37 PM 84.2 °F 91.6 °F 74.3 °F 72% 29.93 in 10.0 mi West 9.2 mph 17.3 mph N/A   Clear
4:55 PM 84.9 °F 93.7 °F 75.4 °F 73% 29.92 in 10.0 mi WSW 10.4 mph - N/A   Scattered Clouds
5:15 PM 86.0 °F 94.6 °F 74.7 °F 69% 29.92 in 10.0 mi SW 4.6 mph - N/A   Scattered Clouds
5:35 PM 85.8 °F 93.8 °F 74.3 °F 68% 29.92 in 10.0 mi SW 10.4 mph - N/A   Scattered Clouds
5:58 PM 83.7 °F 90.7 °F 74.3 °F 73% 29.93 in 10.0 mi WSW 6.9 mph - N/A   Mostly Cloudy
6:17 PM 81.3 °F 86.1 °F 72.7 °F 75% 29.93 in 10.0 mi WSW 15.0 mph - N/A   Overcast
6:35 PM 80.6 °F 85.2 °F 73.0 °F 78% 29.92 in 10.0 mi WSW 3.5 mph - N/A   Mostly Cloudy
6:55 PM 82.4 °F 88.4 °F 73.9 °F 75% 29.92 in 10.0 mi Calm Calm - N/A   Mostly Cloudy
7:15 PM 81.5 °F 87.8 °F 75.2 °F 81% 29.93 in 10.0 mi SW 3.5 mph - N/A   Scattered Clouds
7:38 PM 80.8 °F 86.7 °F 75.6 °F 84% 29.93 in 10.0 mi WSW 18.4 mph 26.5 mph N/A   Scattered Clouds
7:57 PM 77.2 °F - 73.6 °F 89% 29.94 in 10.0 mi WSW 6.9 mph - N/A Rain Light Rain
8:15 PM 79.3 °F - 73.2 °F 81% 29.94 in 10.0 mi West 9.2 mph - N/A   Scattered Clouds
8:35 PM 78.8 °F - 73.6 °F 84% 29.94 in 10.0 mi WSW 5.8 mph - N/A   Clear
8:55 PM 77.4 °F - 73.8 °F 89% 29.95 in 10.0 mi WSW 4.6 mph - N/A   Clear
9:18 PM 77.7 °F - 73.8 °F 88% 29.96 in 10.0 mi WSW 4.6 mph - N/A   Clear
9:36 PM 77.2 °F - 73.8 °F 89% 29.97 in 10.0 mi WSW 3.5 mph - N/A   Clear
9:55 PM 77.0 °F - 73.8 °F 90% 29.97 in 10.0 mi Calm Calm - N/A   Scattered Clouds
10:15 PM 75.6 °F - 73.8 °F 94% 29.97 in 4.0 mi Calm Calm - N/A   Clear
10:35 PM 76.1 °F - 73.8 °F 92% 29.98 in 10.0 mi Calm Calm - N/A   Clear
10:58 PM 75.9 °F - 73.8 °F 93% 29.98 in 10.0 mi West 3.5 mph - N/A   Scattered Clouds
11:16 PM 75.7 °F - 73.8 °F 94% 29.99 in 10.0 mi Calm Calm - N/A   Clear
11:35 PM 76.3 °F - 73.6 °F 91% 29.98 in 10.0 mi Calm Calm - N/A   Clear
11:55 PM 75.2 °F - 73.6 °F 95% 29.98 in 10.0 mi Calm Calm - N/A   Clear